This is the latest recevied weather packets stored in our database for station/object KB1RMA-4. If no packets are shown the sender has not sent any weather packets the latest 10 day(s).
| Time | Temp. | Humidity | Pressure | Rain* | Wind** | Luminosity | Snow |
|---|---|---|---|---|---|---|---|
| 1788117760 | 27.78° C | 45% | 1017 hPa | 0 mm | - | 161 W/m² | - |
| 1788117456 | 27.78° C | 43% | 1017.2 hPa | 0 mm | - | 158 W/m² | - |
| 1788117155 | 28.33° C | 41% | 1017.1 hPa | 0 mm | - | 181 W/m² | - |
| 1788116852 | 28.33° C | 41% | 1017.2 hPa | 0 mm | - | 180 W/m² | - |
| 1788116552 | 28.89° C | 42% | 1017.1 hPa | 0 mm | - | 248 W/m² | - |
| 1788116250 | 29.44° C | 40% | 1017.3 hPa | 0 mm | - | 294 W/m² | - |
| 1788115946 | 28.89° C | 42% | 1017.4 hPa | 0 mm | - | 600 W/m² | - |
| 1788115645 | 28.89° C | 41% | 1017.2 hPa | 0 mm | - | 476 W/m² | - |
| 1788115345 | 28.89° C | 40% | 1017.4 hPa | 0 mm | - | 379 W/m² | - |
| 1788115040 | 28.33° C | 43% | 1017.3 hPa | 0 mm | - | 352 W/m² | - |
| 1788114735 | 28.33° C | 43% | 1017.6 hPa | 0 mm | - | 334 W/m² | - |
| 1788114430 | 28.89° C | 42% | 1017.5 hPa | 0 mm | - | 402 W/m² | - |
| 1788114126 | 28.89° C | 42% | 1017.5 hPa | 0 mm | - | 470 W/m² | - |
| 1788113823 | 27.78° C | 43% | 1017.8 hPa | 0 mm | - | 735 W/m² | - |
| 1788113523 | 27.78° C | 43% | 1017.8 hPa | 0 mm | - | 279 W/m² | - |
| 1788113221 | 27.78° C | 44% | 1017.9 hPa | 0 mm | - | 285 W/m² | - |
| 1788112916 | 27.78° C | 43% | 1017.9 hPa | 0 mm | - | 349 W/m² | - |
| 1788112615 | 27.78° C | 43% | 1018 hPa | 0 mm | - | 306 W/m² | - |
| 1788112310 | 27.78° C | 44% | 1017.9 hPa | 0 mm | - | 342 W/m² | - |
| 1788112006 | 27.78° C | 46% | 1017.9 hPa | 0 mm | - | 288 W/m² | - |
| 1788111702 | 27.78° C | 43% | 1017.8 hPa | 0 mm | - | 389 W/m² | - |
| 1788111396 | 27.78° C | 44% | 1017.9 hPa | 0 mm | - | 293 W/m² | - |
| 1788111091 | 28.33° C | 44% | 1018.1 hPa | 0 mm | - | 358 W/m² | - |
| 1788110788 | 28.89° C | 43% | 1018 hPa | 0 mm | - | 351 W/m² | - |
| 1788110484 | 29.44° C | 43% | 1018 hPa | 0 mm | - | 444 W/m² | - |
* Rain latest hour (hover to see other rain measurements)
** Current wind speed in m/s (hover to see current wind gust speed)